FW4187 Weather Reports


time (UTC)temp
C
wind
direction
speed
KPH
gust
KPH
rain 1hr
cm
rain 24hr
cm
rain mn
cm
humidity
%
barometer
mb
20191017134044 14 235 1.6 6.4 0.00 0.05 0.05 88 1011.1
20191017133544 14 236 0.0 8.0 0.00 0.05 0.05 87 1011.1
20191017133116 14 217 1.6 11.3 0.00 0.05 0.05 87 1011.1
20191017132543 14 252 3.2 8.0 0.00 0.05 0.05 85 1011.2
20191017132043 14 213 3.2 9.7 0.00 0.05 0.05 85 1011.1
20191017131634 15 208 3.2 14.5 0.00 0.05 0.05 84 1011.2
20191017131043 15 263 3.2 14.5 0.00 0.05 0.05 83 1011.1
20191017130545 15 238 0.0 6.4 0.00 0.05 0.05 84 1011.2
20191017130135 15 278 1.6 6.4 0.00 0.05 0.05 83 1011.2
20191017125551 15 217 1.6 12.9 0.00 0.05 0.05 82 1011.2
20191017125050 15 257 3.2 12.9 0.00 0.05 0.05 81 1011.2
20191017124604 15 218 0.0 6.4 0.00 0.05 0.05 82 1011.2
20191017124042 15 222 1.6 14.5 0.00 0.05 0.05 82 1011.2
20191017123544 15 227 1.6 14.5 0.00 0.05 0.05 82 1011.3
20191017123100 15 232 1.6 8.0 0.00 0.05 0.05 84 1011.2
20191017122539 15 238 1.6 8.0 0.00 0.05 0.05 84 1011.2
20191017122041 15 218 1.6 8.0 0.00 0.05 0.05 85 1011.3
20191017121551 15 220 1.6 8.0 0.00 0.05 0.05 84 1011.3
20191017121042 15 210 1.6 11.3 0.00 0.05 0.05 84 1011.4
20191017120538 15 237 3.2 12.9 0.00 0.05 0.05 84 1011.4
20191017120115 15 225 3.2 11.3 0.00 0.05 0.05 85 1011.3
20191017115536 15 236 3.2 9.7 0.00 0.05 0.05 85 1011.3
20191017115041 14 224 3.2 11.3 0.00 0.05 0.05 87 1011.3
20191017114641 14 255 3.2 11.3 0.00 0.05 0.05 87 1011.4
20191017114036 14 220 3.2 11.3 0.00 0.05 0.05 88 1011.5
20191017113536 14 200 3.2 6.4 0.00 0.05 0.05 88 1011.5
20191017113056 14 224 3.2 11.3 0.00 0.05 0.05 88 1011.5
20191017112540 14 273 1.6 11.3 0.00 0.05 0.05 88 1011.5
20191017112035 14 244 4.8 11.3 0.00 0.05 0.05 88 1011.6
20191017111625 14 244 1.6 17.7 0.00 0.05 0.05 88 1011.5
20191017111042 14 220 3.2 17.7 0.00 0.05 0.05 87 1011.4
20191017110534 14 271 3.2 19.3 0.00 0.05 0.05 87 1011.5
20191017110141 14 263 6.4 19.3 0.00 0.05 0.05 87 1011.4
20191017105534 15 219 4.8 17.7 0.00 0.05 0.05 87 1011.5
20191017105032 15 186 4.8 19.3 0.00 0.05 0.05 87 1011.3
20191017104537 15 266 4.8 19.3 0.00 0.05 0.05 87 1011.2
20191017104031 15 244 4.8 14.5 0.00 0.05 0.05 88 1011.1
20191017103533 15 275 4.8 14.5 0.00 0.05 0.05 90 1011.1
20191017103042 15 244 1.6 8.0 0.00 0.05 0.05 90 1011.2
20191017102527 14 217 1.6 6.4 0.00 0.05 0.05 89 1011.2
20191017102032 14 228 1.6 6.4 0.00 0.05 0.05 91 1011.2
20191017101637 14 37 1.6 6.4 0.00 0.05 0.05 92 1011.1
20191017101024 13 226 1.6 8.0 0.00 0.05 0.05 92 1011.1
20191017100523 13 222 3.2 8.0 0.00 0.05 0.05 92 1011.1
20191017100138 13 210 1.6 8.0 0.00 0.05 0.05 92 1011.0
20191017095525 13 234 1.6 9.7 0.00 0.05 0.05 93 1010.9
20191017095023 13 236 1.6 9.7 0.00 0.05 0.05 93 1011.0
20191017094552 13 238 1.6 9.7 0.00 0.05 0.05 94 1011.0
20191017094021 13 228 1.6 11.3 0.00 0.05 0.05 94 1011.1
20191017093521 13 237 1.6 11.3 0.00 0.05 0.05 94 1011.1
20191017093041 13 259 0.0 8.0 0.00 0.05 0.05 94 1011.0
20191017092520 13 223 1.6 8.0 0.00 0.05 0.05 94 1010.9
20191017092026 13 211 1.6 6.4 0.00 0.05 0.05 94 1011.0
20191017091526 13 219 1.6 6.4 0.00 0.05 0.05 94 1010.9
20191017091019 13 204 0.0 8.0 0.00 0.05 0.05 95 1010.8
20191017090522 13 259 0.0 6.4 0.00 0.05 0.05 94 1010.9
20191017090041 13 338 1.6 11.3 0.00 0.05 0.05 94 1010.8
20191017085517 13 240 1.6 11.3 0.00 0.05 0.05 94 1010.8
20191017085025 13 340 1.6 8.0 0.00 0.05 0.05 94 1010.7
20191017084605 13 241 0.0 8.0 0.00 0.05 0.05 94 1010.6
20191017084023 13 274 0.0 3.2 0.00 0.05 0.05 94 1010.7
20191017083516 13 234 0.0 4.8 0.00 0.05 0.05 94 1010.6
20191017083059 13 227 0.0 4.8 0.00 0.05 0.05 94 1010.6
20191017082516 13 281 0.0 4.8 0.00 0.05 0.05 94 1010.6
20191017082014 13 246 0.0 4.8 0.00 0.05 0.05 94 1010.5
20191017081530 13 275 0.0 4.8 0.00 0.05 0.05 94 1010.5
20191017081014 13 214 0.0 4.8 0.00 0.05 0.05 94 1010.5
20191017080514 13 321 1.6 4.8 0.00 0.05 0.05 93 1010.4
20191017080013 13 241 1.6 4.8 0.00 0.05 0.05 93 1010.4
20191017075513 13 267 1.6 4.8 0.00 0.05 0.05 93 1010.4
20191017075012 13 249 1.6 4.8 0.00 0.05 0.05 93 1010.3
20191017074538 13 270 1.6 4.8 0.00 0.05 0.05 93 1010.3
20191017074018 13 273 1.6 4.8 0.00 0.05 0.05 93 1010.2
20191017073514 13 250 1.6 4.8 0.00 0.05 0.05 92 1010.2
20191017073023 13 277 0.0 4.8 0.00 0.05 0.05 92 1010.1
20191017072509 13 355 1.6 8.0 0.00 0.05 0.05 92 1010.1
20191017072009 13 253 1.6 11.3 0.00 0.05 0.05 92 1010.1
20191017071536 13 221 1.6 11.3 0.00 0.05 0.05 91 1010.0
20191017071009 13 242 1.6 6.4 0.00 0.05 0.05 91 1010.0
20191017070514 13 236 1.6 4.8 0.00 0.05 0.05 91 1009.9
20191017070017 13 226 1.6 11.3 0.00 0.05 0.05 91 1009.9
20191017065507 13 233 0.0 11.3 0.00 0.05 0.05 91 1009.9
20191017065008 13 300 1.6 6.4 0.00 0.05 0.05 91 1009.8
20191017064516 13 243 1.6 6.4 0.00 0.05 0.05 91 1009.9
20191017064007 13 252 1.6 6.4 0.00 0.05 0.05 91 1009.7
20191017063506 13 295 0.0 6.4 0.00 0.05 0.05 91 1009.7
20191017063009 13 236 1.6 4.8 0.00 0.05 0.05 91 1009.5
20191017062505 13 218 1.6 9.7 0.00 0.05 0.05 91 1009.5
20191017062008 12 220 1.6 9.7 0.00 0.05 0.05 91 1009.4
20191017061505 12 209 1.6 4.8 0.00 0.05 0.05 91 1009.3
20191017061008 12 215 1.6 4.8 0.00 0.05 0.05 91 1009.2
20191017060503 12 264 0.0 4.8 0.00 0.05 0.05 91 1009.2
20191017060012 12 258 0.0 6.4 0.00 0.05 0.05 91 1009.0
20191017055504 12 271 1.6 6.4 0.00 0.05 0.05 91 1009.0
20191017055003 12 236 0.0 6.4 0.00 0.05 0.05 91 1008.9
20191017054508 12 215 0.0 4.8 0.00 0.05 0.05 91 1008.9
20191017054001 12 248 1.6 6.4 0.00 0.05 0.05 91 1008.9
20191017053501 12 249 0.0 6.4 0.00 0.05 0.05 91 1008.8
20191017053003 12 248 0.0 4.8 0.00 0.05 0.05 91 1008.8
20191017052602 12 243 1.6 6.4 0.00 0.05 0.05 91 1008.8
20191017052107 12 209 1.6 6.4 0.00 0.05 0.05 91 1008.7
20191017051816 12 238 1.6 4.8 0.00 0.05 0.05 91 1008.7
20191017051059 12 234 0.0 6.4 0.00 0.05 0.05 91 1008.7
20191017050559 12 293 0.0 6.4 0.00 0.05 0.05 91 1008.7
20191017050145 12 229 1.6 4.8 0.00 0.05 0.05 91 1008.7
20191017045604 12 240 1.6 6.4 0.00 0.05 0.05 91 1008.7
20191017045104 12 203 1.6 6.4 0.00 0.05 0.05 91 1008.6
20191017044817 12 239 1.6 6.4 0.00 0.05 0.05 90 1008.6
20191017044103 12 307 1.6 6.4 0.00 0.05 0.05 90 1008.6
20191017043606 12 323 1.6 4.8 0.00 0.05 0.05 90 1008.6
20191017043157 12 225 3.2 4.8 0.00 0.05 0.05 90 1008.6
20191017042603 12 315 0.0 11.3 0.00 0.05 0.05 90 1008.6
20191017042104 12 248 1.6 11.3 0.00 0.05 0.05 89 1008.6
20191017041648 12 260 1.6 11.3 0.00 0.05 0.05 89 1008.6
20191017041057 12 209 3.2 11.3 0.00 0.05 0.05 89 1008.6
20191017040557 12 233 0.0 6.4 0.00 0.05 0.05 90 1008.6
20191017040324 12 236 1.6 6.4 0.00 0.05 0.05 89 1008.6
20191017035556 12 217 1.6 9.7 0.00 0.05 0.05 89 1008.5
20191017035056 12 263 1.6 9.7 0.00 0.05 0.05 89 1008.6
20191017034701 12 222 1.6 6.4 0.00 0.05 0.05 89 1008.6
20191017034102 13 233 1.6 8.0 0.00 0.05 0.05 89 1008.5
20191017033556 13 235 1.6 8.0 0.00 0.05 0.05 89 1008.5
20191017033152 13 257 1.6 8.0 0.00 0.05 0.05 89 1008.5
20191017032558 13 221 1.6 8.0 0.00 0.05 0.05 89 1008.6
20191017032055 12 274 1.6 6.4 0.00 0.05 0.05 89 1008.5
20191017031652 13 246 1.6 6.4 0.00 0.05 0.05 88 1008.6
20191017031059 13 168 1.6 6.4 0.00 0.05 0.05 88 1008.5
20191017030612 13 267 1.6 9.7 0.00 0.05 0.05 88 1008.5
20191017030156 13 261 1.6 9.7 0.00 0.05 0.05 88 1008.5
20191017025554 13 229 1.6 6.4 0.00 0.05 0.05 88 1008.4
20191017025053 13 214 1.6 11.3 0.00 0.05 0.05 87 1008.5
20191017024736 13 258 1.6 9.7 0.00 0.05 0.05 87 1008.4
20191017024057 13 232 3.2 9.7 0.00 0.05 0.05 87 1008.5
20191017023613 13 229 1.6 6.4 0.00 0.05 0.05 87 1008.5
20191017023136 13 242 1.6 4.8 0.00 0.05 0.05 87 1008.5
20191017022559 13 281 1.6 4.8 0.00 0.05 0.05 87 1008.5
20191017022106 13 215 1.6 4.8 0.00 0.05 0.05 88 1008.6
20191017021734 12 190 1.6 6.4 0.00 0.05 0.05 88 1008.5
20191017021101 12 232 1.6 6.4 0.00 0.05 0.05 88 1008.5
20191017020551 12 225 1.6 8.0 0.00 0.05 0.05 88 1008.4
20191017020131 12 234 1.6 8.0 0.00 0.05 0.05 88 1008.5
20191017015553 12 192 1.6 6.4 0.00 0.05 0.05 88 1008.5
20191017015052 12 216 1.6 9.7 0.00 0.05 0.05 89 1008.5
20191017014616 12 294 3.2 9.7 0.00 0.05 0.05 88 1008.4
20191017014102 12 211 1.6 6.4 0.00 0.05 0.05 88 1008.4
20191017013557 12 296 3.2 6.4 0.00 0.05 0.05 88 1008.4
20191017013156 12 220 1.6 6.4 0.00 0.05 0.05 88 1008.4
20191017012554 12 231 1.6 8.0 0.00 0.05 0.05 88 1008.6
20191017012054 12 219 1.6 8.0 0.00 0.05 0.05 88 1008.7
20191017011603 12 329 1.6 9.7 0.00 0.05 0.05 89 1008.7
20191017011047 12 248 1.6 9.7 0.00 0.05 0.05 88 1008.6
20191017010547 12 215 3.2 9.7 0.00 0.05 0.05 88 1008.6
20191017010226 12 234 3.2 8.0 0.00 0.05 0.05 88 1008.6
20191017005548 12 194 1.6 8.0 0.00 0.05 0.05 89 1008.6
20191017005054 12 193 3.2 8.0 0.00 0.05 0.05 88 1008.7
20191017004652 12 213 3.2 9.7 0.00 0.05 0.05 89 1008.6
20191017004046 12 265 3.2 11.3 0.00 0.05 0.05 89 1008.6
20191017003553 12 227 3.2 11.3 0.00 0.05 0.05 89 1008.7
20191017003146 12 263 0.0 9.7 0.00 0.05 0.05 89 1008.8
20191017002545 12 202 3.2 9.7 0.00 0.05 0.05 89 1008.8
20191017002047 12 233 1.6 8.0 0.00 0.05 0.05 89 1008.7
20191017001626 12 230 3.2 8.0 0.00 0.05 0.05 89 1008.7
20191017001043 12 235 3.2 8.0 0.00 0.05 0.05 89 1008.7
20191017000543 12 227 3.2 9.7 0.00 0.05 0.05 90 1008.7
20191017000125 12 247 1.6 8.0 0.03 0.05 0.05 90 1008.7
20191016235542 12 246 1.6 8.0 0.03 0.05 0.05 90 1008.7
20191016235051 12 222 1.6 9.7 0.03 0.05 0.05 90 1008.7
20191016234625 12 234 3.2 9.7 0.03 0.05 0.05 89 1008.7
20191016234042 12 221 3.2 8.0 0.05 0.05 0.05 90 1008.7
20191016233542 12 292 1.6 6.4 0.05 0.05 0.05 90 1008.7
20191016233119 12 321 1.6 11.3 0.05 0.05 0.05 90 1008.7
20191016232543 12 222 3.2 11.3 0.05 0.05 0.05 90 1008.7
20191016232047 12 229 3.2 8.0 0.05 0.05 0.05 90 1008.8
20191016231620 12 34 1.6 8.0 0.05 0.05 0.05 91 1008.7
20191016231047 12 322 3.2 8.0 0.05 0.05 0.05 91 1008.9
20191016230539 12 277 1.6 4.8 0.05 0.05 0.05 91 1008.9
20191016230104 12 226 1.6 8.0 0.03 0.03 0.03 91 1008.9
20191016225538 12 277 1.6 8.0 0.03 0.05 0.03 90 1008.9
20191016225037 13 220 1.6 8.0 0.03 0.05 0.03 90 1008.8
20191016224552 13 242 1.6 6.4 0.03 0.05 0.03 90 1008.9
20191016224040 13 188 0.0 8.0 0.00 0.05 0.00 90 1008.9
20191016223536 13 236 1.6 8.0 0.00 0.05 0.00 89 1009.0
20191016223134 13 266 1.6 9.7 0.00 0.05 0.00 89 1008.9
20191016222540 13 203 1.6 8.0 0.00 0.05 0.00 88 1008.9
20191016222034 13 226 3.2 8.0 0.00 0.05 0.00 88 1008.9
20191016221545 13 194 1.6 9.7 0.00 0.05 0.00 88 1008.9
20191016221034 13 225 1.6 9.7 0.00 0.05 0.00 87 1008.9
20191016220532 13 197 1.6 6.4 0.00 0.05 0.00 87 1008.9
20191016220127 13 240 1.6 8.0 0.00 0.05 0.00 87 1008.8
20191016215534 13 13 3.2 8.0 0.00 0.10 0.05 87 1008.9
20191016215032 13 244 1.6 6.4 0.00 0.10 0.05 87 1008.8
20191016214603 13 253 1.6 9.7 0.00 0.10 0.05 87 1008.9
20191016214040 13 209 1.6 9.7 0.00 0.10 0.05 87 1008.9
20191016213533 13 226 1.6 8.0 0.00 0.10 0.05 87 1009.0
20191016213127 13 218 3.2 8.0 0.00 0.10 0.05 87 1009.0
20191016212530 13 210 1.6 8.0 0.00 0.10 0.05 87 1009.0
20191016212036 13 236 1.6 8.0 0.00 0.10 0.05 88 1009.0
20191016211536 13 209 1.6 11.3 0.00 0.10 0.05 88 1009.1
20191016211031 13 222 3.2 11.3 0.00 0.10 0.05 88 1009.1
20191016210533 13 256 1.6 11.3 0.00 0.10 0.05 88 1009.1
20191016210048 13 245 1.6 8.0 0.00 0.10 0.05 88 1009.1
20191016205532 13 314 1.6 8.0 0.00 0.23 0.05 88 1009.1
20191016205029 13 215 3.2 9.7 0.00 0.23 0.05 88 1009.1
20191016204607 13 259 1.6 9.7 0.00 0.23 0.05 89 1009.1
20191016204034 13 254 1.6 9.7 0.00 0.23 0.05 89 1009.1
20191016203534 13 13 1.6 9.7 0.00 0.23 0.05 89 1009.1
20191016203057 13 221 1.6 11.3 0.00 0.23 0.05 89 1009.1
20191016202527 13 277 1.6 11.3 0.00 0.23 0.05 89 1009.0
20191016202036 13 218 3.2 9.7 0.00 0.23 0.05 89 1009.1
20191016201552 13 238 1.6 8.0 0.00 0.23 0.05 89 1009.1
20191016201027 13 194 1.6 8.0 0.00 0.23 0.05 89 1009.1
20191016200526 13 5 1.6 8.0 0.00 0.23 0.05 89 1009.1
20191016200051 13 242 1.6 8.0 0.00 0.23 0.05 89 1009.0
20191016195527 13 246 1.6 8.0 0.00 0.33 0.05 89 1009.1
20191016195033 13 101 1.6 8.0 0.00 0.33 0.05 89 1009.0
20191016194616 13 300 3.2 8.0 0.00 0.33 0.05 89 1009.1
20191016194025 13 222 3.2 8.0 0.00 0.33 0.05 89 1009.1
20191016193525 13 217 1.6 6.4 0.00 0.33 0.05 89 1009.0
20191016193050 13 206 1.6 8.0 0.00 0.33 0.05 89 1009.0
20191016192533 13 224 1.6 8.0 0.00 0.33 0.05 90 1009.0
20191016192024 13 249 1.6 6.4 0.00 0.33 0.05 90 1009.0
20191016191528 13 236 1.6 6.4 0.00 0.33 0.05 90 1009.0
20191016191028 13 246 1.6 6.4 0.00 0.33 0.05 90 1009.1
20191016190531 13 235 3.2 14.5 0.00 0.33 0.05 89 1009.1
20191016190105 13 217 1.6 14.5 0.00 0.33 0.05 90 1009.1
20191016185528 13 240 3.2 9.7 0.00 0.53 0.05 90 1009.0
20191016185024 13 263 1.6 9.7 0.00 0.53 0.05 90 1008.9
20191016184541 13 222 3.2 9.7 0.00 0.53 0.05 90 1008.9
20191016184030 13 216 1.6 8.0 0.00 0.53 0.05 90 1008.8
20191016183523 13 217 1.6 8.0 0.00 0.53 0.05 90 1008.9
20191016183129 13 242 1.6 8.0 0.00 0.53 0.05 90 1008.9
20191016182024 13 239 3.2 8.0 0.00 0.53 0.05 90 1008.9
20191016181550 13 248 1.6 8.0 0.00 0.53 0.05 89 1009.0
20191016181022 13 268 3.2 9.7 0.00 0.53 0.05 89 1009.0
20191016180526 13 250 3.2 8.0 0.00 0.53 0.05 89 1009.0
20191016180033 13 223 3.2 6.4 0.00 0.53 0.05 89 1008.9
20191016175524 13 332 0.0 6.4 0.00 0.71 0.05 89 1009.0
20191016175022 13 217 3.2 6.4 0.00 0.71 0.05 89 1009.0
20191016174526 13 246 0.0 6.4 0.00 0.71 0.05 89 1009.1
20191016174022 13 268 1.6 4.8 0.00 0.71 0.05 89 1009.1
20191016173521 13 257 1.6 8.0 0.00 0.71 0.05 88 1009.1
20191016173035 13 240 1.6 8.0 0.00 0.71 0.05 88 1009.0
20191016172527 13 254 1.6 4.8 0.00 0.71 0.05 88 1009.1
20191016172026 13 269 0.0 4.8 0.00 0.71 0.05 88 1009.0
20191016171532 13 280 1.6 4.8 0.00 0.71 0.05 88 1009.0
20191016171026 13 253 0.0 4.8 0.00 0.71 0.05 88 1009.0
20191016170520 13 246 1.6 6.4 0.00 0.71 0.05 88 1009.0
20191016170032 13 261 1.6 6.4 0.00 0.71 0.05 88 1009.0
20191016165521 13 215 0.0 6.4 0.00 0.79 0.05 88 1008.9
20191016165024 13 203 1.6 4.8 0.00 0.79 0.05 88 1009.0
20191016164527 13 223 0.0 4.8 0.00 0.79 0.05 88 1009.0
20191016164019 13 228 1.6 8.0 0.00 0.79 0.05 88 1009.0
20191016163522 13 219 1.6 6.4 0.00 0.79 0.05 88 1009.1
20191016163057 13 227 1.6 6.4 0.00 0.79 0.05 88 1008.9
20191016162519 13 224 1.6 6.4 0.00 0.79 0.05 87 1008.9
20191016162019 13 279 1.6 8.0 0.00 0.79 0.05 87 1008.8
20191016161554 13 250 1.6 8.0 0.00 0.79 0.05 87 1008.8
20191016161022 13 259 1.6 9.7 0.00 0.79 0.05 87 1008.8
20191016160518 13 222 4.8 9.7 0.00 0.79 0.05 86 1008.8
20191016160018 13 238 1.6 8.0 0.00 0.79 0.05 87 1008.8
20191016155518 13 238 3.2 8.0 0.00 0.79 0.05 86 1008.8
20191016155023 13 229 3.2 8.0 0.00 0.79 0.05 86 1008.8
20191016154524 13 262 1.6 8.0 0.00 0.79 0.05 86 1008.8
20191016154017 13 235 1.6 9.7 0.00 0.79 0.05 86 1008.9
20191016153517 13 207 3.2 9.7 0.00 0.79 0.05 86 1008.9
20191016153031 13 223 1.6 12.9 0.00 0.79 0.05 86 1008.8
20191016152517 13 224 1.6 12.9 0.00 0.79 0.05 86 1008.9
20191016152016 13 217 3.2 9.7 0.00 0.79 0.05 85 1008.8
20191016151528 13 44 1.6 6.4 0.00 0.79 0.05 86 1008.9
20191016151025 13 234 1.6 6.4 0.00 0.79 0.05 86 1008.9
20191016150516 13 238 1.6 8.0 0.00 0.79 0.05 86 1008.9
20191016150047 13 217 1.6 9.7 0.00 0.79 0.05 86 1008.9
20191016145516 13 203 1.6 9.7 0.00 0.81 0.05 86 1008.9
20191016145021 13 238 3.2 6.4 0.00 0.81 0.05 86 1008.8
20191016144535 13 318 1.6 6.4 0.00 0.81 0.05 86 1008.9
20191016144022 13 236 3.2 9.7 0.00 0.81 0.05 86 1009.0
20191016143520 13 220 3.2 11.3 0.00 0.81 0.05 86 1008.9
20191016143041 13 238 1.6 11.3 0.00 0.81 0.05 86 1009.0
20191016142014 13 144 1.6 8.0 0.00 0.81 0.05 87 1008.9
20191016141527 13 287 3.2 8.0 0.00 0.81 0.05 87 1008.9
20191016141017 13 243 1.6 6.4 0.00 0.81 0.05 88 1008.9
20191016140519 13 226 1.6 6.4 0.00 0.81 0.05 87 1009.0
20191016140035 13 229 1.6 4.8 0.00 0.81 0.05 89 1009.0
20191016135512 13 130 0.0 9.7 0.00 0.81 0.05 88 1009.0
20191016135015 13 219 1.6 9.7 0.00 0.81 0.05 87 1009.0
20191016134518 13 227 1.6 9.7 0.00 0.81 0.05 87 1009.0